SCP
0 0 0 1 2 2 5 3 1 0 0 0 0 0 0 0 0 0 0 0 0 0 0 0 0 0 0 0 0 0 0 0 0 0 0 0 0 0 0 0 0 0 0
0 0 0 1 2 2 2 1 0 0 0 0 0 0 0 0 0 0 0 0 0 0 0 0 0 0 0 0 0 0 0 0 0 0 0 0 0 0 0 0 0 0 0
0 0 0 1 1 2 0 0 0 0 0 0 0 0 0 0 0 0 0 0 0 0 0 0 0 0 0 0 0 0 0 0 0 0 0 0 0 0 0 0 0 0 0
0 0 1 1 1 0 0 0 0 0 0 0 0 0 0 0 0 0 0 0 0 0 0 0 0 0 0 0 0 0 0 0 0 0 0 0 0 0 0 0 0 0 0
1 1 1 1 0 0 0 0 0 0 0 0 0 0 0 0 0 0 0 0 0 0 0 0 0 0 0 0 0 0 0 0 0 0 0 0 0 0 0 0 0 0 0
0 1 1 1 0 0 0 0 0 0 0 0 0 0 0 0 0 0 0 0 0 0 0 0 0 0 0 0 0 0 0 0 0 0 0 0 -0 0 0 0 0 0 0
1 1 1 0 0 0 0 0 0 0 0 0 0 0 0 0 0 0 0 0 0 0 0 0 0 0 0 0 0 0 0 -0 0 0 0 -0 -0 0 0 0 0 0 0
1 1 1 0 0 0 0 0 0 0 0 0 0 0 -0 0 0 0 0 0 0 -0 0 0 0 0 0 0 0 0 0 0 0 0 0 -0 -0 -0 -0 0 0 0 0
1 1 0 0 0 0 0 0 0 0 0 0 0 0 -0 0 0 -0 0 -0 -0 -0 0 0 0 0 0 0 0 0 0 0 0 -0 -0 -0 0 -0 -0 -0 0 0 0
1 0 0 0 0 0 0 0 0 0 0 0 -0 -0 -0 0 0 0 -0 -0 -0 0 0 0 0 0 0 0 0 0 0 0 0 0 -0 0 -0 -0 0 -0 0 0 0
0 0 0 0 0 0 0 0 0 0 0 0 -0 -0 -0 -0 -0 -0 -0 -0 -0 0 0 0 0 0 0 0 0 0 0 -0 0 -0 -0 -0 -0 -0 -0 -0 0 0 0
0 0 0 0 0 0 0 0 0 0 -0 -0 -0 -0 -0 0 0 -0 -0 -0 -0 0 0 0 0 0 0 -0 0 0 0 0 -0 -0 0 0 -0 -0 -0 -0 0 0 0
0 0 0 0 0 0 0 0 0 0 0 -0 -0 -0 0 0 -0 -0 -0 -0 0 0 0 0 0 0 -0 -0 -0 0 0 0 -0 0 0 0 -0 -0 -0 0 -0 0 0
0 0 0 0 0 0 0 0 0 -0 -0 -0 0 0 0 0 -0 -0 -0 0 0 0 0 0 -0 -0 -0 0 0 0 0 0 -0 0 0 0 -0 -0 -0 -0 0 -0 -0
0 0 0 0 0 0 0 0 0 -0 0 0 0 0 0 -0 -0 -0 -0 0 0 0 0 0 0 0 0 0 0 0 0 0 0 0 0 -0 -0 -0 -0 -0 -0 -0 -0
0 0 0 0 0 0 0 -0 -0 -0 -0 0 0 -0 -0 0 0 0 0 0 0 0 0 0 0 0 0 0 0 0 0 0 0 0 0 -0 -0 -0 -0 -0 -0 0 -0
0 0 0 0 0 0 0 -0 -0 0 0 0 -0 -0 0 0 -0 -0 0 0 0 -0 0 0 0 0 0 0 0 0 0 0 0 0 0 0 -0 -0 -0 -0 -0 -0 -0
0 0 0 0 0 0 0 0 0 0 0 0 0 -0 -0 -0 0 0 -0 -0 0 0 0 0 0 0 0 0 0 0 0 0 0 0 0 0 -0 -0 0 -0 -0 -0 0
0 0 0 0 0 0 0 0 0 0 0 -0 -0 -0 -0 -0 0 0 0 0 0 0 0 0 0 0 0 0 -0 -0 -0 -0 0 0 0 -0 0 -0 -0 0 -0 -0 -0
0 0 0 0 0 0 0 0 0 0 0 -0 -0 -0 0 0 0 0 0 -0 -0 0 0 0 0 0 -0 -0 -0 -0 -0 -0 0 0 0 -0 0 -0 -0 -0 -0 -0 0
0 0 0 0 0 0 0 0 0 0 0 -0 -0 -0 0 0 0 0 -0 -0 0 0 0 -0 -0 -0 -0 -0 -0 -0 -0 -0 -0 0 0 -0 0 -0 -0 0 0 -0 -0
0 0 0 0 0 0 0 0 0 0 -0 -0 -0 -0 -0 0 0 -0 -0 -0 0 0 0 -0 -0 -0 -0 -0 -0 -0 -0 -0 -0 -0 0 -0 -0 0 0 -0 -0 0 -0
0 0 0 0 0 0 0 0 0 -0 -0 -0 0 -0 -0 0 0 0 -0 0 0 0 0 0 -0 -0 -0 -0 -0 -0 -0 -0 0 -0 -0 -0 -0 0 0 0 -0 -0 -0
0 0 0 0 0 0 0 0 0 -0 -0 -0 -0 -0 0 0 0 -0 0 0 0 0 0 0 0 0 -0 0 0 0 0 0 0 0 0 -0 -0 0 -0 0 0 -0 0
0 0 0 0 0 0 0 0 -0 -0 -0 0 0 -0 0 0 -0 0 0 0 0 0 0 0 0 0 0 -0 -0 -0 0 0 0 0 -0 0 0 0 0 0 0 0 -0
0 0 0 0 0 0 0 0 -0 -0 -0 0 -0 0 -0 0 0 0 0 0 0 0 0 0 0 0 0 0 0 0 0 0 0 0 -0 -0 -0 0 0 0 0 0 0
Wind_Speed_500mb
37 36 40 47 71 71 77 75 82 83 84 62 41 39 37 31 26 18 13 12 11 9 11 15 16 17 15 18 19 21 24 28 35 38 38 42 47 52 66 70 58 53 50
40 36 38 43 57 76 77 85 88 93 64 50 45 48 37 33 26 22 18 14 11 12 12 14 16 16 20 22 20 26 26 28 31 42 43 44 46 60 68 61 64 52 50
38 37 32 38 44 66 87 81 87 78 69 59 55 50 45 39 31 23 18 14 13 14 15 16 18 20 23 24 25 28 26 26 29 34 38 40 43 57 69 65 62 62 48
33 34 30 29 39 47 103 104 94 84 73 65 54 49 44 39 33 26 19 15 18 18 17 18 21 26 28 31 26 26 29 29 31 33 34 38 46 59 65 74 73 62 56
29 28 26 30 38 54 10 57 91 88 76 67 60 50 46 40 33 29 21 20 22 23 21 19 26 26 29 32 34 34 37 34 33 35 38 42 54 74 77 74 71 68 57
27 25 25 23 38 37 54 65 89 86 81 59 63 60 52 41 34 28 27 26 27 23 19 19 24 27 28 35 41 42 44 48 44 37 39 50 63 67 66 68 70 63 56
24 35 39 46 55 81 84 78 77 87 84 78 66 57 53 46 35 31 29 29 25 23 23 24 22 28 30 29 29 33 37 44 47 41 45 53 55 59 58 65 60 44 45
26 43 52 64 71 68 62 63 79 79 79 75 69 56 46 44 38 32 29 30 28 28 27 25 28 32 35 32 27 29 23 30 41 41 42 47 46 50 50 52 54 42 51
50 55 61 67 77 72 77 69 82 88 80 73 63 55 51 47 40 37 30 31 29 31 33 34 33 35 31 31 33 30 30 28 33 42 38 38 38 41 49 60 78 83 58
61 61 73 86 89 90 71 81 86 85 84 73 61 53 49 48 40 35 35 29 32 28 28 35 40 40 40 38 37 37 34 29 29 28 30 34 37 43 55 66 57 56 53
67 71 78 84 81 83 82 86 83 89 82 73 63 54 51 47 44 36 42 29 27 25 24 27 39 43 45 39 39 38 37 24 25 26 37 38 34 35 44 54 48 39 53
91 91 98 84 91 99 90 90 86 86 80 73 63 58 54 52 46 39 34 37 34 33 33 37 44 43 55 55 46 31 24 26 25 32 40 42 36 33 38 47 57 43 38
90 92 87 89 90 69 88 94 86 74 72 64 57 58 58 56 49 45 42 42 48 52 47 51 54 57 46 42 47 40 38 35 34 37 40 40 38 37 40 46 46 39 43
94 94 94 108 109 85 92 85 81 71 60 56 46 48 44 39 31 27 33 36 42 44 38 49 47 44 44 35 36 38 39 40 37 38 39 36 37 39 42 47 49 47 47
108 107 106 110 114 92 70 65 68 55 53 57 51 47 53 54 49 43 43 48 54 51 41 38 39 40 37 37 37 42 43 41 40 38 42 43 46 37 40 43 45 46 48
124 122 129 125 114 89 88 87 71 68 60 60 63 65 66 62 56 52 52 61 57 49 41 44 44 42 45 48 51 51 51 53 52 45 46 46 47 49 45 45 48 47 44
125 131 126 118 100 94 96 93 93 82 76 69 67 66 66 66 58 54 58 62 55 45 48 47 45 54 53 52 54 55 62 68 68 66 66 59 56 61 43 47 45 45 45
125 121 117 104 102 101 98 97 82 93 90 83 72 67 64 60 62 64 58 49 46 49 48 43 42 50 51 52 51 49 48 52 55 50 47 50 52 53 47 43 43 40 42
131 110 103 108 95 88 78 70 80 90 90 86 76 68 59 55 60 61 51 47 46 44 44 42 36 44 48 48 39 39 41 47 53 55 51 46 42 45 46 44 40 44 43
119 121 118 107 94 86 86 87 91 83 78 66 55 50 50 48 49 48 46 44 44 43 40 38 35 36 38 38 38 39 41 45 50 52 47 46 46 44 44 40 44 42 44
117 108 109 101 100 86 92 88 79 72 66 56 56 57 50 48 48 46 43 41 41 41 36 37 35 34 34 34 34 33 37 43 47 49 48 45 45 47 44 45 41 37 41
109 106 100 98 91 91 87 77 70 67 62 62 60 60 52 49 47 43 41 40 39 37 37 35 36 36 34 37 38 36 33 36 46 45 47 43 43 44 44 41 42 47 46
96 98 89 88 87 79 74 71 65 62 61 56 51 49 47 46 44 40 38 37 39 39 40 39 37 34 37 38 40 43 41 35 39 41 37 43 41 41 45 45 43 41 45
88 90 91 82 77 71 73 70 64 61 57 52 50 48 47 45 41 39 37 36 37 38 39 39 43 42 42 42 43 45 42 40 44 38 35 36 39 39 39 41 42 43 44
82 74 79 75 70 75 71 65 61 57 53 50 49 49 45 40 37 38 37 34 38 38 38 37 35 39 43 45 47 43 37 38 44 41 36 37 37 38 38 39 38 40 44
77 71 69 72 74 67 66 62 57 54 51 48 47 45 42 38 37 37 35 34 36 37 37 35 35 38 41 44 43 40 39 41 45 49 42 42 42 41 39 40 40 39 41
Wind_Direction_500mb
236 230 230 226 218 216 202 194 191 186 180 181 194 210 187 194 200 180 183 161 148 87 51 36 34 26 37 11 14 352 357 345 335 333 339 346 351 341 338 352 355 354 1
236 236 237 227 226 212 189 187 192 187 178 169 181 173 188 180 165 165 160 150 113 83 67 55 41 34 45 15 20 359 354 349 339 336 344 352 353 337 351 1 6 15 9
233 229 239 233 231 217 174 188 187 177 173 166 183 171 173 167 161 145 140 131 105 85 74 65 47 39 32 29 22 13 354 356 347 344 347 353 346 347 2 5 6 15 7
233 226 237 220 215 214 190 182 184 175 167 172 166 165 161 152 142 141 134 116 92 84 75 66 52 39 30 29 22 20 7 7 358 359 356 354 354 353 5 3 8 18 6
233 227 218 215 214 198 112 155 166 161 156 156 153 155 148 139 140 144 132 114 99 84 76 39 43 34 30 31 31 27 21 16 9 6 1 359 357 3 6 6 13 7 10
221 186 193 198 181 182 189 172 152 144 145 152 154 158 150 145 146 141 131 124 105 98 79 66 32 37 31 33 26 27 15 11 16 12 4 1 0 4 5 12 11 11 8
223 174 159 163 164 149 142 152 141 146 153 154 155 145 144 137 140 139 134 114 101 93 80 69 45 43 39 51 27 27 15 13 17 10 7 1 5 9 9 16 19 26 11
192 168 170 162 156 157 155 152 155 153 147 143 142 140 137 135 141 128 113 101 95 83 75 64 51 43 41 41 37 37 30 28 4 5 3 3 15 15 20 25 32 38 26
168 164 163 168 171 169 160 162 159 146 137 137 138 142 142 134 128 113 103 94 90 80 67 60 52 46 39 36 39 37 35 42 8 6 3 20 29 31 42 44 43 44 39
174 175 160 157 155 159 148 155 144 140 143 136 136 136 137 119 108 107 95 93 87 78 57 46 49 44 36 33 38 43 39 25 27 9 11 37 43 50 54 53 35 27 17
169 161 160 160 161 157 160 162 149 143 136 138 137 130 120 113 103 99 107 101 93 89 75 56 47 43 39 34 46 58 37 41 22 13 28 42 51 53 54 46 33 29 29
161 156 151 149 152 149 144 153 147 139 135 130 126 118 110 102 100 100 99 102 106 91 73 61 50 48 39 28 35 34 44 39 32 30 35 39 48 43 42 46 42 37 26
165 160 159 156 154 157 166 154 142 137 128 123 119 113 106 103 101 96 93 91 83 74 64 57 50 46 46 35 23 36 40 44 36 36 39 52 51 46 48 56 54 42 29
157 156 153 150 146 149 146 141 132 123 121 122 120 113 110 104 97 83 81 74 76 74 54 49 49 51 46 37 37 41 44 44 39 43 45 56 57 51 34 40 31 36 35
144 143 138 136 136 126 132 125 125 126 128 132 123 116 117 111 104 102 96 89 82 74 64 58 53 50 46 44 45 50 51 49 47 50 49 50 47 44 43 32 34 37 35
142 141 139 139 142 145 139 132 130 137 135 128 119 115 107 102 99 94 93 87 80 74 67 61 54 52 52 53 54 55 56 53 51 50 49 44 39 39 48 46 47 40 36
149 147 143 142 140 139 129 126 122 115 112 112 108 106 104 99 96 90 86 84 78 69 66 62 58 59 60 59 61 62 64 60 52 47 44 44 51 41 48 37 34 33 39
150 147 145 136 131 128 126 121 118 119 114 106 103 102 99 99 93 83 76 74 70 67 66 65 60 58 60 61 62 57 49 32 29 31 24 25 24 28 36 35 34 29 39
140 132 131 130 124 124 121 124 121 120 114 106 102 96 96 97 93 83 79 76 73 70 66 66 61 55 53 43 39 39 38 40 42 42 41 35 34 35 39 35 32 35 39
138 140 141 135 128 131 130 124 115 105 100 98 97 94 89 88 83 78 76 75 73 70 66 64 62 50 48 45 39 38 41 38 42 37 32 36 37 39 39 36 36 38 42
134 133 136 126 124 121 120 112 106 107 108 107 106 108 100 93 89 84 81 76 73 69 66 62 57 54 47 43 42 40 41 37 39 41 36 35 38 41 41 42 40 35 37
132 130 127 122 120 115 114 118 116 111 110 107 104 101 98 92 90 88 84 80 75 73 66 61 58 51 47 43 41 38 43 38 37 37 38 36 41 39 40 40 41 36 34
126 124 118 119 119 115 112 110 112 113 109 107 107 103 98 95 93 90 89 85 79 74 69 64 59 53 50 49 46 48 44 47 38 34 35 39 39 42 42 41 40 37 37
130 129 122 116 115 116 114 115 115 114 113 113 109 106 103 99 99 97 91 87 84 77 71 65 62 62 62 58 54 51 50 55 62 44 36 43 39 42 42 42 40 40 38
120 122 120 119 123 119 117 117 117 116 114 113 111 107 104 105 104 99 95 90 85 80 77 72 64 62 62 62 59 55 55 59 63 55 43 42 52 43 43 42 42 40 40
120 122 126 123 117 122 121 118 117 117 117 114 110 110 111 110 107 101 98 96 90 84 80 75 72 70 66 63 60 58 58 61 65 60 45 48 46 50 43 43 42 43 42
Wind_Speed_850mb
37 36 40 47 71 71 77 75 82 83 84 62 41 39 37 31 26 18 13 12 11 9 11 15 16 17 15 18 19 21 24 28 35 38 38 42 47 52 66 70 58 53 50
40 36 38 43 57 76 77 85 88 93 64 50 45 48 37 33 26 22 18 14 11 12 12 14 16 16 20 22 20 26 26 28 31 42 43 44 46 60 68 61 64 52 50
38 37 32 38 44 66 87 81 87 78 69 59 55 50 45 39 31 23 18 14 13 14 15 16 18 20 23 24 25 28 26 26 29 34 38 40 43 57 69 65 62 62 48
33 34 30 29 39 47 103 104 94 84 73 65 54 49 44 39 33 26 19 15 18 18 17 18 21 26 28 31 26 26 29 29 31 33 34 38 46 59 65 74 73 62 56
29 28 26 30 38 54 10 57 91 88 76 67 60 50 46 40 33 29 21 20 22 23 21 19 26 26 29 32 34 34 37 34 33 35 38 42 54 74 77 74 71 68 57
27 25 25 23 38 37 54 65 89 86 81 59 63 60 52 41 34 28 27 26 27 23 19 19 24 27 28 35 41 42 44 48 44 37 39 50 63 67 66 68 70 63 56
24 35 39 46 55 81 84 78 77 87 84 78 66 57 53 46 35 31 29 29 25 23 23 24 22 28 30 29 29 33 37 44 47 41 45 53 55 59 58 65 60 44 45
26 43 52 64 71 68 62 63 79 79 79 75 69 56 46 44 38 32 29 30 28 28 27 25 28 32 35 32 27 29 23 30 41 41 42 47 46 50 50 52 54 42 51
50 55 61 67 77 72 77 69 82 88 80 73 63 55 51 47 40 37 30 31 29 31 33 34 33 35 31 31 33 30 30 28 33 42 38 38 38 41 49 60 78 83 58
61 61 73 86 89 90 71 81 86 85 84 73 61 53 49 48 40 35 35 29 32 28 28 35 40 40 40 38 37 37 34 29 29 28 30 34 37 43 55 66 57 56 53
67 71 78 84 81 83 82 86 83 89 82 73 63 54 51 47 44 36 42 29 27 25 24 27 39 43 45 39 39 38 37 24 25 26 37 38 34 35 44 54 48 39 53
91 91 98 84 91 99 90 90 86 86 80 73 63 58 54 52 46 39 34 37 34 33 33 37 44 43 55 55 46 31 24 26 25 32 40 42 36 33 38 47 57 43 38
90 92 87 89 90 69 88 94 86 74 72 64 57 58 58 56 49 45 42 42 48 52 47 51 54 57 46 42 47 40 38 35 34 37 40 40 38 37 40 46 46 39 43
94 94 94 108 109 85 92 85 81 71 60 56 46 48 44 39 31 27 33 36 42 44 38 49 47 44 44 35 36 38 39 40 37 38 39 36 37 39 42 47 49 47 47
108 107 106 110 114 92 70 65 68 55 53 57 51 47 53 54 49 43 43 48 54 51 41 38 39 40 37 37 37 42 43 41 40 38 42 43 46 37 40 43 45 46 48
124 122 129 125 114 89 88 87 71 68 60 60 63 65 66 62 56 52 52 61 57 49 41 44 44 42 45 48 51 51 51 53 52 45 46 46 47 49 45 45 48 47 44
125 131 126 118 100 94 96 93 93 82 76 69 67 66 66 66 58 54 58 62 55 45 48 47 45 54 53 52 54 55 62 68 68 66 66 59 56 61 43 47 45 45 45
125 121 117 104 102 101 98 97 82 93 90 83 72 67 64 60 62 64 58 49 46 49 48 43 42 50 51 52 51 49 48 52 55 50 47 50 52 53 47 43 43 40 42
131 110 103 108 95 88 78 70 80 90 90 86 76 68 59 55 60 61 51 47 46 44 44 42 36 44 48 48 39 39 41 47 53 55 51 46 42 45 46 44 40 44 43
119 121 118 107 94 86 86 87 91 83 78 66 55 50 50 48 49 48 46 44 44 43 40 38 35 36 38 38 38 39 41 45 50 52 47 46 46 44 44 40 44 42 44
117 108 109 101 100 86 92 88 79 72 66 56 56 57 50 48 48 46 43 41 41 41 36 37 35 34 34 34 34 33 37 43 47 49 48 45 45 47 44 45 41 37 41
109 106 100 98 91 91 87 77 70 67 62 62 60 60 52 49 47 43 41 40 39 37 37 35 36 36 34 37 38 36 33 36 46 45 47 43 43 44 44 41 42 47 46
96 98 89 88 87 79 74 71 65 62 61 56 51 49 47 46 44 40 38 37 39 39 40 39 37 34 37 38 40 43 41 35 39 41 37 43 41 41 45 45 43 41 45
88 90 91 82 77 71 73 70 64 61 57 52 50 48 47 45 41 39 37 36 37 38 39 39 43 42 42 42 43 45 42 40 44 38 35 36 39 39 39 41 42 43 44
82 74 79 75 70 75 71 65 61 57 53 50 49 49 45 40 37 38 37 34 38 38 38 37 35 39 43 45 47 43 37 38 44 41 36 37 37 38 38 39 38 40 44
77 71 69 72 74 67 66 62 57 54 51 48 47 45 42 38 37 37 35 34 36 37 37 35 35 38 41 44 43 40 39 41 45 49 42 42 42 41 39 40 40 39 41
Wind_Direction_850mb
236 230 230 226 218 216 202 194 191 186 180 181 194 210 187 194 200 180 183 161 148 87 51 36 34 26 37 11 14 352 357 345 335 333 339 346 351 341 338 352 355 354 1
236 236 237 227 226 212 189 187 192 187 178 169 181 173 188 180 165 165 160 150 113 83 67 55 41 34 45 15 20 359 354 349 339 336 344 352 353 337 351 1 6 15 9
233 229 239 233 231 217 174 188 187 177 173 166 183 171 173 167 161 145 140 131 105 85 74 65 47 39 32 29 22 13 354 356 347 344 347 353 346 347 2 5 6 15 7
233 226 237 220 215 214 190 182 184 175 167 172 166 165 161 152 142 141 134 116 92 84 75 66 52 39 30 29 22 20 7 7 358 359 356 354 354 353 5 3 8 18 6
233 227 218 215 214 198 112 155 166 161 156 156 153 155 148 139 140 144 132 114 99 84 76 39 43 34 30 31 31 27 21 16 9 6 1 359 357 3 6 6 13 7 10
221 186 193 198 181 182 189 172 152 144 145 152 154 158 150 145 146 141 131 124 105 98 79 66 32 37 31 33 26 27 15 11 16 12 4 1 0 4 5 12 11 11 8
223 174 159 163 164 149 142 152 141 146 153 154 155 145 144 137 140 139 134 114 101 93 80 69 45 43 39 51 27 27 15 13 17 10 7 1 5 9 9 16 19 26 11
192 168 170 162 156 157 155 152 155 153 147 143 142 140 137 135 141 128 113 101 95 83 75 64 51 43 41 41 37 37 30 28 4 5 3 3 15 15 20 25 32 38 26
168 164 163 168 171 169 160 162 159 146 137 137 138 142 142 134 128 113 103 94 90 80 67 60 52 46 39 36 39 37 35 42 8 6 3 20 29 31 42 44 43 44 39
174 175 160 157 155 159 148 155 144 140 143 136 136 136 137 119 108 107 95 93 87 78 57 46 49 44 36 33 38 43 39 25 27 9 11 37 43 50 54 53 35 27 17
169 161 160 160 161 157 160 162 149 143 136 138 137 130 120 113 103 99 107 101 93 89 75 56 47 43 39 34 46 58 37 41 22 13 28 42 51 53 54 46 33 29 29
161 156 151 149 152 149 144 153 147 139 135 130 126 118 110 102 100 100 99 102 106 91 73 61 50 48 39 28 35 34 44 39 32 30 35 39 48 43 42 46 42 37 26
165 160 159 156 154 157 166 154 142 137 128 123 119 113 106 103 101 96 93 91 83 74 64 57 50 46 46 35 23 36 40 44 36 36 39 52 51 46 48 56 54 42 29
157 156 153 150 146 149 146 141 132 123 121 122 120 113 110 104 97 83 81 74 76 74 54 49 49 51 46 37 37 41 44 44 39 43 45 56 57 51 34 40 31 36 35
144 143 138 136 136 126 132 125 125 126 128 132 123 116 117 111 104 102 96 89 82 74 64 58 53 50 46 44 45 50 51 49 47 50 49 50 47 44 43 32 34 37 35
142 141 139 139 142 145 139 132 130 137 135 128 119 115 107 102 99 94 93 87 80 74 67 61 54 52 52 53 54 55 56 53 51 50 49 44 39 39 48 46 47 40 36
149 147 143 142 140 139 129 126 122 115 112 112 108 106 104 99 96 90 86 84 78 69 66 62 58 59 60 59 61 62 64 60 52 47 44 44 51 41 48 37 34 33 39
150 147 145 136 131 128 126 121 118 119 114 106 103 102 99 99 93 83 76 74 70 67 66 65 60 58 60 61 62 57 49 32 29 31 24 25 24 28 36 35 34 29 39
140 132 131 130 124 124 121 124 121 120 114 106 102 96 96 97 93 83 79 76 73 70 66 66 61 55 53 43 39 39 38 40 42 42 41 35 34 35 39 35 32 35 39
138 140 141 135 128 131 130 124 115 105 100 98 97 94 89 88 83 78 76 75 73 70 66 64 62 50 48 45 39 38 41 38 42 37 32 36 37 39 39 36 36 38 42
134 133 136 126 124 121 120 112 106 107 108 107 106 108 100 93 89 84 81 76 73 69 66 62 57 54 47 43 42 40 41 37 39 41 36 35 38 41 41 42 40 35 37
132 130 127 122 120 115 114 118 116 111 110 107 104 101 98 92 90 88 84 80 75 73 66 61 58 51 47 43 41 38 43 38 37 37 38 36 41 39 40 40 41 36 34
126 124 118 119 119 115 112 110 112 113 109 107 107 103 98 95 93 90 89 85 79 74 69 64 59 53 50 49 46 48 44 47 38 34 35 39 39 42 42 41 40 37 37
130 129 122 116 115 116 114 115 115 114 113 113 109 106 103 99 99 97 91 87 84 77 71 65 62 62 62 58 54 51 50 55 62 44 36 43 39 42 42 42 40 40 38
120 122 120 119 123 119 117 117 117 116 114 113 111 107 104 105 104 99 95 90 85 80 77 72 64 62 62 62 59 55 55 59 63 55 43 42 52 43 43 42 42 40 40
120 122 126 123 117 122 121 118 117 117 117 114 110 110 111 110 107 101 98 96 90 84 80 75 72 70 66 63 60 58 58 61 65 60 45 48 46 50 43 43 42 43 42